Weather reports worldwide

Advertisment
Marrakech, Morocco (60230): temperature & dewpoint: 19.11.2017 09:00:00 - 25.11.2017 09:00:00 (WET)Marrakech, Morocco (60230): wind speed: 19.11.2017 09:00:00 - 25.11.2017 09:00:00 (WET)Marrakech, Morocco (60230): wind direction: 19.11.2017 09:00:00 - 25.11.2017 09:00:00 (WET)Marrakech, Morocco (60230): reduced air pressure: 19.11.2017 09:00:00 - 25.11.2017 09:00:00 (WET)Marrakech, Morocco (60230): visibility: 19.11.2017 09:00:00 - 25.11.2017 09:00:00 (WET)
Date & Time tt [°C] td [°C] ff [km/h] ff [kn] dd ppp [hPa] vv [km]
25.11.2017 09:00:00 16,5 -7,9 9 5 ESE 1020,7 7
25.11.2017 08:00:00 13,0 -5,0 11 6 E - 8
25.11.2017 07:00:00 12,0 -5,0 8 4 E - 10
25.11.2017 06:00:00 12,4 -5,6 5 3 E 1020,0 10
25.11.2017 05:00:00 13,0 -6,0 5 3 E - 10
25.11.2017 04:00:00 13,0 -7,0 8 4 ESE - 10
25.11.2017 03:00:00 13,0 -6,5 11 6 E 1020,4 10
25.11.2017 02:00:00 13,0 -7,0 5 3 E - 10
25.11.2017 01:00:00 - - - - - - -
25.11.2017 00:00:00 13,8 -6,4 9 5 E 1020,3 8
24.11.2017 23:00:00 15,0 -7,0 4 2 ENE - 6
24.11.2017 22:00:00 16,0 -8,0 4 2 - - 10
24.11.2017 21:00:00 17,4 -7,9 5 3 NE 1019,5 10
24.11.2017 20:00:00 18,0 -9,0 8 4 E - 8
24.11.2017 19:00:00 21,0 -9,0 11 6 ESE - 8
24.11.2017 18:00:00 21,4 -9,1 2 1 - 1017,5 8
24.11.2017 17:00:00 25,0 -11,0 5 3 SSE - 10
24.11.2017 16:00:00 27,0 -12,0 5 3 E - 10
24.11.2017 15:00:00 26,4 -10,5 8 4 NNE 1016,0 7
24.11.2017 14:00:00 26,0 -8,0 8 4 N - 7
24.11.2017 13:00:00 25,0 -8,0 5 3 NE - 7
24.11.2017 12:00:00 21,9 -6,8 8 4 ENE 1018,5 7
24.11.2017 11:00:00 19,0 -4,0 5 3 E - 10
24.11.2017 10:00:00 18,0 -4,0 5 3 ENE - 7
24.11.2017 09:00:00 14,4 -4,3 5 3 ENE 1020,7 10
24.11.2017 08:00:00 11,0 -5,0 5 3 NNE - 9
24.11.2017 07:00:00 9,0 -5,0 4 2 - - 10
24.11.2017 06:00:00 10,0 -5,5 5 3 ENE 1020,1 10
24.11.2017 05:00:00 11,0 -7,0 4 2 ENE - 10
24.11.2017 04:00:00 10,0 -7,0 5 3 SE - 10
24.11.2017 03:00:00 11,4 -6,4 2 1 ESE 1020,0 10
24.11.2017 02:00:00 13,0 -7,0 5 3 SSW - 10
24.11.2017 01:00:00 12,0 -6,0 5 3 E - 10
24.11.2017 00:00:00 12,3 -5,7 5 3 ESE 1020,1 8
23.11.2017 23:00:00 14,0 -7,0 4 2 - - 8
23.11.2017 22:00:00 16,0 -8,0 8 4 SSE - 6
23.11.2017 21:00:00 15,6 -7,9 8 4 E 1019,4 6
23.11.2017 20:00:00 17,0 -10,0 5 3 E - 5
23.11.2017 19:00:00 19,0 -10,0 2 1 E - 5
23.11.2017 18:00:00 21,3 -9,2 2 1 SSW 1017,4 5
23.11.2017 17:00:00 26,0 -11,0 0 0 N - 10
23.11.2017 16:00:00 25,0 -11,0 5 3 NNE - 10
23.11.2017 15:00:00 25,0 -10,0 11 6 ENE 1015,6 10
23.11.2017 14:00:00 25,0 -9,0 9 5 NNE - 10
23.11.2017 13:00:00 24,0 -8,0 5 3 N - 10
23.11.2017 12:00:00 23,6 -7,4 4 2 - 1018,1 10
23.11.2017 11:00:00 23,0 -8,0 0 0 N - 10
23.11.2017 10:00:00 19,0 -8,0 4 2 - - 8
23.11.2017 09:00:00 14,6 -5,2 2 1 NE 1019,7 8
23.11.2017 08:00:00 10,0 -5,0 4 2 ENE - 10
23.11.2017 07:00:00 8,0 -4,0 5 3 ENE - 10
23.11.2017 06:00:00 7,9 -5,5 9 5 E 1018,6 10
23.11.2017 05:00:00 10,0 -7,0 4 2 ESE - 10
23.11.2017 04:00:00 12,0 -7,0 8 4 S - 10
23.11.2017 03:00:00 11,9 -7,0 9 5 S 1017,4 10
23.11.2017 02:00:00 11,0 -7,0 5 3 SE - 10
23.11.2017 01:00:00 12,0 -7,0 2 1 SSE - 10
23.11.2017 00:00:00 15,1 -7,0 9 5 S 1017,0 10
22.11.2017 23:00:00 15,0 -7,0 5 3 SSE - 10
22.11.2017 22:00:00 15,0 -6,0 9 5 S - 9
22.11.2017 21:00:00 16,2 -5,5 4 2 - 1016,7 9
22.11.2017 20:00:00 17,0 -6,0 8 4 S - 6
22.11.2017 19:00:00 18,0 -6,0 8 4 SW - 8
22.11.2017 18:00:00 19,9 -5,8 5 3 WSW 1014,7 8
22.11.2017 17:00:00 23,0 -8,0 8 4 W - 8
22.11.2017 16:00:00 24,0 -7,0 11 6 W - 8
22.11.2017 15:00:00 23,1 -7,8 11 6 WNW 1013,8 8
22.11.2017 14:00:00 24,0 -8,0 9 5 NW - 10
22.11.2017 13:00:00 24,0 -7,0 2 1 - - 10
22.11.2017 12:00:00 20,5 -5,4 2 1 - 1016,2 7
22.11.2017 11:00:00 18,0 -8,0 0 0 N - 10
22.11.2017 10:00:00 17,0 -5,0 4 2 - - 8
22.11.2017 09:00:00 14,3 -5,4 5 3 E 1017,7 6
22.11.2017 08:00:00 12,0 -4,0 8 4 ENE - 10
22.11.2017 07:00:00 10,0 -5,0 4 2 - - 10
22.11.2017 06:00:00 9,9 -4,8 5 3 E 1017,1 10
22.11.2017 05:00:00 11,0 -6,0 4 2 ESE - 10
22.11.2017 04:00:00 13,0 -6,0 0 0 N - 10
22.11.2017 03:00:00 13,7 -6,5 2 1 - 1016,9 10
22.11.2017 02:00:00 16,0 -7,0 8 4 SSW - 10
22.11.2017 01:00:00 16,0 -5,0 16 9 SSW - 10
22.11.2017 00:00:00 15,1 -4,8 15 8 SW 1017,7 10
21.11.2017 23:00:00 15,0 -4,0 11 6 WSW - 10
21.11.2017 22:00:00 14,0 -6,0 13 7 WSW - 10
21.11.2017 21:00:00 16,9 -9,0 4 2 - 1017,0 10
21.11.2017 20:00:00 17,0 -9,0 9 5 E - 10
21.11.2017 19:00:00 20,0 -11,0 8 4 ENE - 8
21.11.2017 18:00:00 22,6 -11,8 9 5 NNE 1015,7 10
21.11.2017 17:00:00 25,0 -11,0 13 7 NNE - 10
21.11.2017 16:00:00 27,0 -12,0 11 6 N - 10
21.11.2017 15:00:00 27,2 -11,5 9 5 NNE 1014,7 10
21.11.2017 14:00:00 27,0 -10,0 11 6 NNE - 10
21.11.2017 13:00:00 25,0 -8,0 9 5 NNE - 10
21.11.2017 12:00:00 24,0 -7,1 5 3 N 1017,9 3,8
21.11.2017 11:00:00 21,0 -6,0 8 4 NE - 3,8
21.11.2017 10:00:00 19,0 -4,0 5 3 NE - 3,8
21.11.2017 09:00:00 15,8 -4,2 5 3 E 1020,5 10
21.11.2017 08:00:00 11,0 -3,0 4 2 E - 10
21.11.2017 07:00:00 9,0 -4,0 8 4 E - 10
21.11.2017 06:00:00 11,3 -4,4 4 2 N 1020,7 10
21.11.2017 05:00:00 10,0 -3,0 4 2 NE - 10
21.11.2017 04:00:00 11,0 -5,0 9 5 ESE - 10
21.11.2017 03:00:00 11,3 -4,8 8 4 E 1020,7 10
21.11.2017 02:00:00 13,0 -5,0 4 2 ENE - 10
21.11.2017 01:00:00 16,0 -6,0 5 3 S - 10
21.11.2017 00:00:00 15,6 -6,0 5 3 SSE 1020,8 10
20.11.2017 23:00:00 18,0 -7,0 8 4 SSW - 10
20.11.2017 22:00:00 19,0 -7,0 11 6 SSW - 10
20.11.2017 21:00:00 19,0 -8,2 11 6 SW 1020,6 10
20.11.2017 20:00:00 19,0 -8,0 5 3 SW - 10
20.11.2017 19:00:00 20,0 -6,0 15 8 W - 5
20.11.2017 18:00:00 23,9 -8,3 5 3 N 1017,4 10
20.11.2017 17:00:00 26,0 -8,0 8 4 N - 10
20.11.2017 16:00:00 27,0 -8,0 8 4 NNW - 10
20.11.2017 15:00:00 27,9 -6,5 5 3 NNW 1015,8 10
20.11.2017 14:00:00 28,0 -7,0 11 6 NNW - 10
20.11.2017 13:00:00 26,0 -6,0 11 6 NNW - 10
20.11.2017 12:00:00 26,1 -4,4 5 3 NNW 1018,1 9
20.11.2017 11:00:00 24,0 -2,0 4 2 - - 10
20.11.2017 10:00:00 20,0 -1,0 8 4 ENE - 10
20.11.2017 09:00:00 15,9 -1,2 5 3 ENE 1020,0 7
20.11.2017 08:00:00 12,0 -1,0 5 3 E - 10
20.11.2017 07:00:00 10,0 -1,0 5 3 E - 7
20.11.2017 06:00:00 9,9 -1,2 5 3 E 1019,5 10
20.11.2017 05:00:00 11,0 0,0 5 3 E - 10
20.11.2017 04:00:00 12,0 -2,0 4 2 SE - 10
20.11.2017 03:00:00 12,1 -0,1 4 2 SE 1018,7 10
20.11.2017 02:00:00 13,0 1,0 0 0 N - 9
20.11.2017 01:00:00 13,0 1,0 4 2 SE - 8
20.11.2017 00:00:00 15,1 -1,0 4 2 ESE 1018,1 10
19.11.2017 23:00:00 16,0 -1,0 2 1 SSW - 10
19.11.2017 22:00:00 19,0 1,0 11 6 SSW - 10
19.11.2017 21:00:00 18,2 0,4 5 3 S 1016,8 9
19.11.2017 20:00:00 18,0 1,0 9 5 WSW - 6
19.11.2017 19:00:00 20,0 0,0 5 3 WSW - 6
19.11.2017 18:00:00 22,2 0,1 8 4 SW 1014,3 10
19.11.2017 17:00:00 25,0 0,0 5 3 W - 10
19.11.2017 16:00:00 26,0 -1,0 4 2 - - 10
19.11.2017 15:00:00 26,5 -2,2 4 2 - 1012,9 10
19.11.2017 14:00:00 26,0 -3,0 4 2 - - 10
19.11.2017 13:00:00 24,0 1,0 5 3 NNW - 10
19.11.2017 12:00:00 22,6 1,0 5 3 N 1015,0 10
19.11.2017 11:00:00 21,0 1,0 5 3 N - 10
19.11.2017 10:00:00 19,0 0,0 8 4 E - 10
19.11.2017 09:00:00 15,1 0,2 9 5 E 1016,6 10

tt = temperature
td = dewpoint
ff = wind speed
dd = wind direction
ppp = reduced air pressure
vv = visibility

Next stations